#datetime,building,power
2022-07-09T00:00:00,mfh,23.79
2022-07-09T00:01:00,mfh,23.82
2022-07-09T00:02:00,mfh,24.46
2022-07-09T00:03:00,mfh,24.44
2022-07-09T00:04:00,mfh,25.11
2022-07-09T00:05:00,mfh,25.32
2022-07-09T00:06:00,mfh,25.41
2022-07-09T00:07:00,mfh,25.25
2022-07-09T00:08:00,mfh,25.26
2022-07-09T00:09:00,mfh,25.29
2022-07-09T00:10:00,mfh,26.07
2022-07-09T00:11:00,mfh,26.05
2022-07-09T00:12:00,mfh,24.39
2022-07-09T00:13:00,mfh,23.66
2022-07-09T00:14:00,mfh,24.42
2022-07-09T00:15:00,mfh,24.38
2022-07-09T00:16:00,mfh,24.40
2022-07-09T00:17:00,mfh,24.38
2022-07-09T00:18:00,mfh,24.58
2022-07-09T00:19:00,mfh,24.25
2022-07-09T00:20:00,mfh,24.31
2022-07-09T00:21:00,mfh,24.51
2022-07-09T00:22:00,mfh,23.77
2022-07-09T00:23:00,mfh,23.88
2022-07-09T00:24:00,mfh,24.47
2022-07-09T00:25:00,mfh,24.04
2022-07-09T00:26:00,mfh,24.66
2022-07-09T00:27:00,mfh,24.75
2022-07-09T00:28:00,mfh,24.72
2022-07-09T00:29:00,mfh,24.79
2022-07-09T00:30:00,mfh,24.85
2022-07-09T00:31:00,mfh,24.05
2022-07-09T00:32:00,mfh,23.77
2022-07-09T00:33:00,mfh,23.77
2022-07-09T00:34:00,mfh,24.40
2022-07-09T00:35:00,mfh,24.37
2022-07-09T00:36:00,mfh,25.07
2022-07-09T00:37:00,mfh,24.38
2022-07-09T00:38:00,mfh,23.68
2022-07-09T00:39:00,mfh,23.86
2022-07-09T00:40:00,mfh,24.03
2022-07-09T00:41:00,mfh,23.84
2022-07-09T00:42:00,mfh,24.46
2022-07-09T00:43:00,mfh,24.51
2022-07-09T00:44:00,mfh,24.51
2022-07-09T00:45:00,mfh,24.54
2022-07-09T00:46:00,mfh,24.07
2022-07-09T00:47:00,mfh,24.19
2022-07-09T00:48:00,mfh,24.25
2022-07-09T00:49:00,mfh,24.59
2022-07-09T00:50:00,mfh,24.77
2022-07-09T00:51:00,mfh,24.79
2022-07-09T00:52:00,mfh,24.76
2022-07-09T00:53:00,mfh,24.77
2022-07-09T00:54:00,mfh,24.10
2022-07-09T00:55:00,mfh,24.54
2022-07-09T00:56:00,mfh,24.05
2022-07-09T00:57:00,mfh,23.97
2022-07-09T00:58:00,mfh,24.39
2022-07-09T00:59:00,mfh,24.40
2022-07-09T01:00:00,mfh,24.25
2022-07-09T01:01:00,mfh,24.26
2022-07-09T01:02:00,mfh,23.61
2022-07-09T01:03:00,mfh,23.60
2022-07-09T01:04:00,mfh,23.74
2022-07-09T01:05:00,mfh,24.12
2022-07-09T01:06:00,mfh,24.31
2022-07-09T01:07:00,mfh,24.51
2022-07-09T01:08:00,mfh,24.57
2022-07-09T01:09:00,mfh,24.56
2022-07-09T01:10:00,mfh,23.87
2022-07-09T01:11:00,mfh,23.86
2022-07-09T01:12:00,mfh,24.10
2022-07-09T01:13:00,mfh,24.78
2022-07-09T01:14:00,mfh,24.72
2022-07-09T01:15:00,mfh,24.79
2022-07-09T01:16:00,mfh,24.75
2022-07-09T01:17:00,mfh,24.79
2022-07-09T01:18:00,mfh,24.02
2022-07-09T01:19:00,mfh,23.90
2022-07-09T01:20:00,mfh,23.91
2022-07-09T01:21:00,mfh,23.91
2022-07-09T01:22:00,mfh,23.89
2022-07-09T01:23:00,mfh,25.12
2022-07-09T01:24:00,mfh,24.35
2022-07-09T01:25:00,mfh,24.38
2022-07-09T01:26:00,mfh,23.68
2022-07-09T01:27:00,mfh,23.93
2022-07-09T01:28:00,mfh,24.08
2022-07-09T01:29:00,mfh,23.62
2022-07-09T01:30:00,mfh,24.17
2022-07-09T01:31:00,mfh,29.66
2022-07-09T01:32:00,mfh,43.74
2022-07-09T01:33:00,mfh,45.28
2022-07-09T01:34:00,mfh,51.91
2022-07-09T01:35:00,mfh,52.45
2022-07-09T01:36:00,mfh,52.51
2022-07-09T01:37:00,mfh,51.63
2022-07-09T01:38:00,mfh,51.70
2022-07-09T01:39:00,mfh,52.18
2022-07-09T01:40:00,mfh,52.17
2022-07-09T01:41:00,mfh,52.14
2022-07-09T01:42:00,mfh,51.32
2022-07-09T01:43:00,mfh,51.39
2022-07-09T01:44:00,mfh,43.62
2022-07-09T01:45:00,mfh,37.66
2022-07-09T01:46:00,mfh,32.22
2022-07-09T01:47:00,mfh,32.12
2022-07-09T01:48:00,mfh,32.06
2022-07-09T01:49:00,mfh,31.86
2022-07-09T01:50:00,mfh,23.63
2022-07-09T01:51:00,mfh,23.64
2022-07-09T01:52:00,mfh,23.63
2022-07-09T01:53:00,mfh,23.64
2022-07-09T01:54:00,mfh,24.84
2022-07-09T01:55:00,mfh,24.04
2022-07-09T01:56:00,mfh,23.64
2022-07-09T01:57:00,mfh,23.64
2022-07-09T01:58:00,mfh,23.57
2022-07-09T01:59:00,mfh,23.57
2022-07-09T02:00:00,mfh,24.16
2022-07-09T02:01:00,mfh,24.22
2022-07-09T02:02:00,mfh,24.21
2022-07-09T02:03:00,mfh,24.08
2022-07-09T02:04:00,mfh,23.64
2022-07-09T02:05:00,mfh,23.80
2022-07-09T02:06:00,mfh,23.87
2022-07-09T02:07:00,mfh,23.95
2022-07-09T02:08:00,mfh,24.51
2022-07-09T02:09:00,mfh,24.61
2022-07-09T02:10:00,mfh,24.60
2022-07-09T02:11:00,mfh,24.74
2022-07-09T02:12:00,mfh,23.93
2022-07-09T02:13:00,mfh,23.85
2022-07-09T02:14:00,mfh,23.64
2022-07-09T02:15:00,mfh,23.68
2022-07-09T02:16:00,mfh,24.43
2022-07-09T02:17:00,mfh,24.32
2022-07-09T02:18:00,mfh,24.37
2022-07-09T02:19:00,mfh,24.38
2022-07-09T02:20:00,mfh,23.66
2022-07-09T02:21:00,mfh,23.66
2022-07-09T02:22:00,mfh,24.02
2022-07-09T02:23:00,mfh,23.66
2022-07-09T02:24:00,mfh,24.39
2022-07-09T02:25:00,mfh,24.38
2022-07-09T02:26:00,mfh,24.40
2022-07-09T02:27:00,mfh,23.72
2022-07-09T02:28:00,mfh,23.96
2022-07-09T02:29:00,mfh,23.93
2022-07-09T02:30:00,mfh,24.37
2022-07-09T02:31:00,mfh,23.99
2022-07-09T02:32:00,mfh,24.81
2022-07-09T02:33:00,mfh,24.62
2022-07-09T02:34:00,mfh,24.87
2022-07-09T02:35:00,mfh,24.92
2022-07-09T02:36:00,mfh,24.25
2022-07-09T02:37:00,mfh,24.24
2022-07-09T02:38:00,mfh,24.98
2022-07-09T02:39:00,mfh,25.29
2022-07-09T02:40:00,mfh,26.16
2022-07-09T02:41:00,mfh,24.61
2022-07-09T02:42:00,mfh,24.59
2022-07-09T02:43:00,mfh,24.82
2022-07-09T02:44:00,mfh,24.08
2022-07-09T02:45:00,mfh,24.03
2022-07-09T02:46:00,mfh,23.95
2022-07-09T02:47:00,mfh,23.84
2022-07-09T02:48:00,mfh,28.38
2022-07-09T02:49:00,mfh,28.94
2022-07-09T02:50:00,mfh,29.01
2022-07-09T02:51:00,mfh,28.84
2022-07-09T02:52:00,mfh,28.23
2022-07-09T02:53:00,mfh,28.33
2022-07-09T02:54:00,mfh,28.45
2022-07-09T02:55:00,mfh,28.36
2022-07-09T02:56:00,mfh,29.20
2022-07-09T02:57:00,mfh,29.13
2022-07-09T02:58:00,mfh,29.14
2022-07-09T02:59:00,mfh,28.67
2022-07-09T03:00:00,mfh,27.96
2022-07-09T03:01:00,mfh,28.27
2022-07-09T03:02:00,mfh,28.00
2022-07-09T03:03:00,mfh,28.30
2022-07-09T03:04:00,mfh,28.56
2022-07-09T03:05:00,mfh,28.85
2022-07-09T03:06:00,mfh,28.32
2022-07-09T03:07:00,mfh,28.77
2022-07-09T03:08:00,mfh,27.82
2022-07-09T03:09:00,mfh,27.64
2022-07-09T03:10:00,mfh,27.90
2022-07-09T03:11:00,mfh,27.79
2022-07-09T03:12:00,mfh,28.72
2022-07-09T03:13:00,mfh,28.32
2022-07-09T03:14:00,mfh,28.53
2022-07-09T03:15:00,mfh,28.74
2022-07-09T03:16:00,mfh,28.39
2022-07-09T03:17:00,mfh,27.71
2022-07-09T03:18:00,mfh,27.71
2022-07-09T03:19:00,mfh,28.02
2022-07-09T03:20:00,mfh,28.28
2022-07-09T03:21:00,mfh,28.96
2022-07-09T03:22:00,mfh,28.67
2022-07-09T03:23:00,mfh,28.73
2022-07-09T03:24:00,mfh,29.13
2022-07-09T03:25:00,mfh,27.90
2022-07-09T03:26:00,mfh,28.31
2022-07-09T03:27:00,mfh,28.07
2022-07-09T03:28:00,mfh,28.72
2022-07-09T03:29:00,mfh,29.21
2022-07-09T03:30:00,mfh,28.67
2022-07-09T03:31:00,mfh,28.38
2022-07-09T03:32:00,mfh,28.37
2022-07-09T03:33:00,mfh,27.81
2022-07-09T03:34:00,mfh,28.34
2022-07-09T03:35:00,mfh,27.60
2022-07-09T03:36:00,mfh,29.00
2022-07-09T03:37:00,mfh,28.57
2022-07-09T03:38:00,mfh,29.32
2022-07-09T03:39:00,mfh,28.80
2022-07-09T03:40:00,mfh,28.99
2022-07-09T03:41:00,mfh,28.01
2022-07-09T03:42:00,mfh,28.21
2022-07-09T03:43:00,mfh,27.98
2022-07-09T03:44:00,mfh,28.01
2022-07-09T03:45:00,mfh,28.74
2022-07-09T03:46:00,mfh,28.67
2022-07-09T03:47:00,mfh,28.86
2022-07-09T03:48:00,mfh,29.21
2022-07-09T03:49:00,mfh,28.13
2022-07-09T03:50:00,mfh,28.35
2022-07-09T03:51:00,mfh,28.09
2022-07-09T03:52:00,mfh,28.26
2022-07-09T03:53:00,mfh,28.75
2022-07-09T03:54:00,mfh,28.54
2022-07-09T03:55:00,mfh,29.67
2022-07-09T03:56:00,mfh,29.73
2022-07-09T03:57:00,mfh,28.01
2022-07-09T03:58:00,mfh,27.75
2022-07-09T03:59:00,mfh,28.08
2022-07-09T04:00:00,mfh,28.48
2022-07-09T04:01:00,mfh,28.54
2022-07-09T04:02:00,mfh,28.73
2022-07-09T04:03:00,mfh,28.91
2022-07-09T04:04:00,mfh,29.78
2022-07-09T04:05:00,mfh,28.16
2022-07-09T04:06:00,mfh,27.83
2022-07-09T04:07:00,mfh,27.77
2022-07-09T04:08:00,mfh,28.78
2022-07-09T04:09:00,mfh,28.77
2022-07-09T04:10:00,mfh,28.95
2022-07-09T04:11:00,mfh,28.72
2022-07-09T04:12:00,mfh,29.86
2022-07-09T04:13:00,mfh,28.10
2022-07-09T04:14:00,mfh,28.04
2022-07-09T04:15:00,mfh,27.88
2022-07-09T04:16:00,mfh,28.17
2022-07-09T04:17:00,mfh,28.54
2022-07-09T04:18:00,mfh,28.86
2022-07-09T04:19:00,mfh,29.20
2022-07-09T04:20:00,mfh,28.97
2022-07-09T04:21:00,mfh,27.92
2022-07-09T04:22:00,mfh,27.89
2022-07-09T04:23:00,mfh,27.91
2022-07-09T04:24:00,mfh,28.01
2022-07-09T04:25:00,mfh,29.62
2022-07-09T04:26:00,mfh,28.18
2022-07-09T04:27:00,mfh,28.24
2022-07-09T04:28:00,mfh,28.60
2022-07-09T04:29:00,mfh,28.00
2022-07-09T04:30:00,mfh,27.68
2022-07-09T04:31:00,mfh,28.40
2022-07-09T04:32:00,mfh,27.41
2022-07-09T04:33:00,mfh,28.14
2022-07-09T04:34:00,mfh,28.25
2022-07-09T04:35:00,mfh,28.26
2022-07-09T04:36:00,mfh,28.88
2022-07-09T04:37:00,mfh,27.89
2022-07-09T04:38:00,mfh,27.90
2022-07-09T04:39:00,mfh,28.21
2022-07-09T04:40:00,mfh,27.98
2022-07-09T04:41:00,mfh,29.15
2022-07-09T04:42:00,mfh,28.95
2022-07-09T04:43:00,mfh,28.37
2022-07-09T04:44:00,mfh,28.37
2022-07-09T04:45:00,mfh,27.81
2022-07-09T04:46:00,mfh,27.98
2022-07-09T04:47:00,mfh,27.56
2022-07-09T04:48:00,mfh,28.10
2022-07-09T04:49:00,mfh,28.61
2022-07-09T04:50:00,mfh,28.05
2022-07-09T04:51:00,mfh,27.79
2022-07-09T04:52:00,mfh,27.60
2022-07-09T04:53:00,mfh,26.78
2022-07-09T04:54:00,mfh,27.33
2022-07-09T04:55:00,mfh,27.79
2022-07-09T04:56:00,mfh,27.70
2022-07-09T04:57:00,mfh,28.34
2022-07-09T04:58:00,mfh,28.62
2022-07-09T04:59:00,mfh,27.54
2022-07-09T05:00:00,mfh,25.18
2022-07-09T05:01:00,mfh,38.75
2022-07-09T05:02:00,mfh,40.33
2022-07-09T05:03:00,mfh,40.29
2022-07-09T05:04:00,mfh,41.04
2022-07-09T05:05:00,mfh,41.52
2022-07-09T05:06:00,mfh,41.13
2022-07-09T05:07:00,mfh,41.12
2022-07-09T05:08:00,mfh,41.17
2022-07-09T05:09:00,mfh,40.38
2022-07-09T05:10:00,mfh,40.90
2022-07-09T05:11:00,mfh,29.51
2022-07-09T05:12:00,mfh,30.42
2022-07-09T05:13:00,mfh,31.22
2022-07-09T05:14:00,mfh,31.24
2022-07-09T05:15:00,mfh,31.18
2022-07-09T05:16:00,mfh,31.26
2022-07-09T05:17:00,mfh,30.72
2022-07-09T05:18:00,mfh,30.49
2022-07-09T05:19:00,mfh,30.54
2022-07-09T05:20:00,mfh,30.59
2022-07-09T05:21:00,mfh,31.18
2022-07-09T05:22:00,mfh,31.17
2022-07-09T05:23:00,mfh,31.22
2022-07-09T05:24:00,mfh,30.98
2022-07-09T05:25:00,mfh,31.02
2022-07-09T05:26:00,mfh,31.02
2022-07-09T05:27:00,mfh,30.60
2022-07-09T05:28:00,mfh,30.51
2022-07-09T05:29:00,mfh,30.39
2022-07-09T05:30:00,mfh,30.95
2022-07-09T05:31:00,mfh,30.82
2022-07-09T05:32:00,mfh,30.54
2022-07-09T05:33:00,mfh,30.25
2022-07-09T05:34:00,mfh,30.85
2022-07-09T05:35:00,mfh,29.48
2022-07-09T05:36:00,mfh,29.42
2022-07-09T05:37:00,mfh,29.17
2022-07-09T05:38:00,mfh,29.72
2022-07-09T05:39:00,mfh,29.45
2022-07-09T05:40:00,mfh,29.41
2022-07-09T05:41:00,mfh,29.14
2022-07-09T05:42:00,mfh,29.11
2022-07-09T05:43:00,mfh,28.58
2022-07-09T05:44:00,mfh,27.85
2022-07-09T05:45:00,mfh,27.87
2022-07-09T05:46:00,mfh,27.93
2022-07-09T05:47:00,mfh,28.53
2022-07-09T05:48:00,mfh,29.51
2022-07-09T05:49:00,mfh,28.65
2022-07-09T05:50:00,mfh,28.94
2022-07-09T05:51:00,mfh,28.70
2022-07-09T05:52:00,mfh,28.23
2022-07-09T05:53:00,mfh,28.22
2022-07-09T05:54:00,mfh,28.67
2022-07-09T05:55:00,mfh,29.31
2022-07-09T05:56:00,mfh,29.41
2022-07-09T05:57:00,mfh,29.85
2022-07-09T05:58:00,mfh,28.90
2022-07-09T05:59:00,mfh,29.05
2022-07-09T06:00:00,mfh,28.92
2022-07-09T06:01:00,mfh,28.87
2022-07-09T06:02:00,mfh,28.35
2022-07-09T06:03:00,mfh,28.26
2022-07-09T06:04:00,mfh,28.22
2022-07-09T06:05:00,mfh,28.90
2022-07-09T06:06:00,mfh,28.97
2022-07-09T06:07:00,mfh,29.19
2022-07-09T06:08:00,mfh,29.07
2022-07-09T06:09:00,mfh,29.02
2022-07-09T06:10:00,mfh,28.27
2022-07-09T06:11:00,mfh,28.25
2022-07-09T06:12:00,mfh,28.25
2022-07-09T06:13:00,mfh,28.54
2022-07-09T06:14:00,mfh,28.58
2022-07-09T06:15:00,mfh,28.64
2022-07-09T06:16:00,mfh,28.88
2022-07-09T06:17:00,mfh,28.89
2022-07-09T06:18:00,mfh,28.23
2022-07-09T06:19:00,mfh,27.94
2022-07-09T06:20:00,mfh,27.79
2022-07-09T06:21:00,mfh,27.72
2022-07-09T06:22:00,mfh,28.29
2022-07-09T06:23:00,mfh,28.99
2022-07-09T06:24:00,mfh,28.35
2022-07-09T06:25:00,mfh,28.46
2022-07-09T06:26:00,mfh,28.23
2022-07-09T06:27:00,mfh,28.56
2022-07-09T06:28:00,mfh,27.81
2022-07-09T06:29:00,mfh,27.68
2022-07-09T06:30:00,mfh,28.20
2022-07-09T06:31:00,mfh,28.19
2022-07-09T06:32:00,mfh,28.14
2022-07-09T06:33:00,mfh,28.29
2022-07-09T06:34:00,mfh,28.25
2022-07-09T06:35:00,mfh,27.55
2022-07-09T06:36:00,mfh,27.52
2022-07-09T06:37:00,mfh,27.51
2022-07-09T06:38:00,mfh,27.52
2022-07-09T06:39:00,mfh,29.03
2022-07-09T06:40:00,mfh,28.01
2022-07-09T06:41:00,mfh,28.27
2022-07-09T06:42:00,mfh,28.33
2022-07-09T06:43:00,mfh,28.29
2022-07-09T06:44:00,mfh,27.55
2022-07-09T06:45:00,mfh,27.65
2022-07-09T06:46:00,mfh,27.61
2022-07-09T06:47:00,mfh,28.80
2022-07-09T06:48:00,mfh,28.33
2022-07-09T06:49:00,mfh,28.18
2022-07-09T06:50:00,mfh,28.03
2022-07-09T06:51:00,mfh,28.12
2022-07-09T06:52:00,mfh,27.61
2022-07-09T06:53:00,mfh,28.44
2022-07-09T06:54:00,mfh,29.02
2022-07-09T06:55:00,mfh,28.92
2022-07-09T06:56:00,mfh,29.00
2022-07-09T06:57:00,mfh,29.05
2022-07-09T06:58:00,mfh,29.10
2022-07-09T06:59:00,mfh,29.14
2022-07-09T07:00:00,mfh,28.48
2022-07-09T07:01:00,mfh,28.53
2022-07-09T07:02:00,mfh,28.46
2022-07-09T07:03:00,mfh,28.52
2022-07-09T07:04:00,mfh,29.10
2022-07-09T07:05:00,mfh,29.36
2022-07-09T07:06:00,mfh,29.33
2022-07-09T07:07:00,mfh,42.47
2022-07-09T07:08:00,mfh,44.26
2022-07-09T07:09:00,mfh,43.88
2022-07-09T07:10:00,mfh,51.23
2022-07-09T07:11:00,mfh,51.34
2022-07-09T07:12:00,mfh,51.29
2022-07-09T07:13:00,mfh,52.69
2022-07-09T07:14:00,mfh,52.31
2022-07-09T07:15:00,mfh,52.71
2022-07-09T07:16:00,mfh,52.12
2022-07-09T07:17:00,mfh,51.17
2022-07-09T07:18:00,mfh,50.54
2022-07-09T07:19:00,mfh,50.45
2022-07-09T07:20:00,mfh,50.32
2022-07-09T07:21:00,mfh,44.56
2022-07-09T07:22:00,mfh,44.51
2022-07-09T07:23:00,mfh,44.47
2022-07-09T07:24:00,mfh,36.56
2022-07-09T07:25:00,mfh,36.55
2022-07-09T07:26:00,mfh,36.60
2022-07-09T07:27:00,mfh,36.28
2022-07-09T07:28:00,mfh,36.19
2022-07-09T07:29:00,mfh,36.03
2022-07-09T07:30:00,mfh,36.62
2022-07-09T07:31:00,mfh,36.66
2022-07-09T07:32:00,mfh,36.75
2022-07-09T07:33:00,mfh,36.67
2022-07-09T07:34:00,mfh,36.77
2022-07-09T07:35:00,mfh,36.08
2022-07-09T07:36:00,mfh,35.77
2022-07-09T07:37:00,mfh,35.82
2022-07-09T07:38:00,mfh,36.45
2022-07-09T07:39:00,mfh,36.19
2022-07-09T07:40:00,mfh,36.30
2022-07-09T07:41:00,mfh,36.33
2022-07-09T07:42:00,mfh,36.37
2022-07-09T07:43:00,mfh,36.40
2022-07-09T07:44:00,mfh,35.61
2022-07-09T07:45:00,mfh,35.59
2022-07-09T07:46:00,mfh,35.60
2022-07-09T07:47:00,mfh,37.20
2022-07-09T07:48:00,mfh,35.38
2022-07-09T07:49:00,mfh,35.37
2022-07-09T07:50:00,mfh,35.58
2022-07-09T07:51:00,mfh,36.23
2022-07-09T07:52:00,mfh,36.32
2022-07-09T07:53:00,mfh,37.59
2022-07-09T07:54:00,mfh,37.53
2022-07-09T07:55:00,mfh,36.84
2022-07-09T07:56:00,mfh,36.20
2022-07-09T07:57:00,mfh,36.18
2022-07-09T07:58:00,mfh,36.08
2022-07-09T07:59:00,mfh,36.37
2022-07-09T08:00:00,mfh,36.75
2022-07-09T08:01:00,mfh,36.75
2022-07-09T08:02:00,mfh,36.71
2022-07-09T08:03:00,mfh,36.69
2022-07-09T08:04:00,mfh,36.67
2022-07-09T08:05:00,mfh,36.27
2022-07-09T08:06:00,mfh,36.04
2022-07-09T08:07:00,mfh,36.03
2022-07-09T08:08:00,mfh,37.96
2022-07-09T08:09:00,mfh,37.41
2022-07-09T08:10:00,mfh,37.23
2022-07-09T08:11:00,mfh,37.12
2022-07-09T08:12:00,mfh,37.21
2022-07-09T08:13:00,mfh,37.07
2022-07-09T08:14:00,mfh,36.44
2022-07-09T08:15:00,mfh,36.39
2022-07-09T08:16:00,mfh,36.64
2022-07-09T08:17:00,mfh,37.25
2022-07-09T08:18:00,mfh,37.45
2022-07-09T08:19:00,mfh,37.72
2022-07-09T08:20:00,mfh,38.14
2022-07-09T08:21:00,mfh,37.38
2022-07-09T08:22:00,mfh,36.60
2022-07-09T08:23:00,mfh,36.25
2022-07-09T08:24:00,mfh,36.31
2022-07-09T08:25:00,mfh,37.08
2022-07-09T08:26:00,mfh,37.06
2022-07-09T08:27:00,mfh,37.48
2022-07-09T08:28:00,mfh,36.71
2022-07-09T08:29:00,mfh,36.85
2022-07-09T08:30:00,mfh,36.82
2022-07-09T08:31:00,mfh,36.62
2022-07-09T08:32:00,mfh,36.07
2022-07-09T08:33:00,mfh,44.13
2022-07-09T08:34:00,mfh,45.18
2022-07-09T08:35:00,mfh,45.45
2022-07-09T08:36:00,mfh,45.68
2022-07-09T08:37:00,mfh,45.38
2022-07-09T08:38:00,mfh,45.03
2022-07-09T08:39:00,mfh,44.55
2022-07-09T08:40:00,mfh,44.41
2022-07-09T08:41:00,mfh,44.32
2022-07-09T08:42:00,mfh,44.67
2022-07-09T08:43:00,mfh,45.04
2022-07-09T08:44:00,mfh,44.89
2022-07-09T08:45:00,mfh,44.96
2022-07-09T08:46:00,mfh,44.92
2022-07-09T08:47:00,mfh,44.88
2022-07-09T08:48:00,mfh,43.98
2022-07-09T08:49:00,mfh,44.07
2022-07-09T08:50:00,mfh,43.91
2022-07-09T08:51:00,mfh,44.56
2022-07-09T08:52:00,mfh,44.33
2022-07-09T08:53:00,mfh,44.24
2022-07-09T08:54:00,mfh,36.64
2022-07-09T08:55:00,mfh,36.98
2022-07-09T08:56:00,mfh,36.69
2022-07-09T08:57:00,mfh,36.49
2022-07-09T08:58:00,mfh,36.10
2022-07-09T08:59:00,mfh,36.08
2022-07-09T09:00:00,mfh,36.77
2022-07-09T09:01:00,mfh,37.03
2022-07-09T09:02:00,mfh,38.13
2022-07-09T09:03:00,mfh,36.68
2022-07-09T09:04:00,mfh,36.72
2022-07-09T09:05:00,mfh,35.91
2022-07-09T09:06:00,mfh,38.39
2022-07-09T09:07:00,mfh,46.97
2022-07-09T09:08:00,mfh,48.20
2022-07-09T09:09:00,mfh,48.37
2022-07-09T09:10:00,mfh,48.32
2022-07-09T09:11:00,mfh,48.37
2022-07-09T09:12:00,mfh,48.30
2022-07-09T09:13:00,mfh,48.40
2022-07-09T09:14:00,mfh,47.65
2022-07-09T09:15:00,mfh,47.75
2022-07-09T09:16:00,mfh,47.42
2022-07-09T09:17:00,mfh,48.96
2022-07-09T09:18:00,mfh,48.27
2022-07-09T09:19:00,mfh,48.77
2022-07-09T09:20:00,mfh,49.02
2022-07-09T09:21:00,mfh,48.26
2022-07-09T09:22:00,mfh,48.15
2022-07-09T09:23:00,mfh,47.67
2022-07-09T09:24:00,mfh,47.61
2022-07-09T09:25:00,mfh,47.55
2022-07-09T09:26:00,mfh,48.13
2022-07-09T09:27:00,mfh,47.85
2022-07-09T09:28:00,mfh,47.81
2022-07-09T09:29:00,mfh,47.83
2022-07-09T09:30:00,mfh,47.77
2022-07-09T09:31:00,mfh,47.24
2022-07-09T09:32:00,mfh,47.22
2022-07-09T09:33:00,mfh,47.17
2022-07-09T09:34:00,mfh,47.59
2022-07-09T09:35:00,mfh,47.62
2022-07-09T09:36:00,mfh,47.66
2022-07-09T09:37:00,mfh,47.76
2022-07-09T09:38:00,mfh,48.30
2022-07-09T09:39:00,mfh,49.08
2022-07-09T09:40:00,mfh,48.14
2022-07-09T09:41:00,mfh,48.62
2022-07-09T09:42:00,mfh,47.99
2022-07-09T09:43:00,mfh,47.83
2022-07-09T09:44:00,mfh,47.95
2022-07-09T09:45:00,mfh,48.52
2022-07-09T09:46:00,mfh,47.80
2022-07-09T09:47:00,mfh,48.01
2022-07-09T09:48:00,mfh,48.69
2022-07-09T09:49:00,mfh,47.89
2022-07-09T09:50:00,mfh,48.25
2022-07-09T09:51:00,mfh,48.10
2022-07-09T09:52:00,mfh,50.50
2022-07-09T09:53:00,mfh,49.90
2022-07-09T09:54:00,mfh,49.77
2022-07-09T09:55:00,mfh,49.84
2022-07-09T09:56:00,mfh,50.08
2022-07-09T09:57:00,mfh,49.08
2022-07-09T09:58:00,mfh,49.29
2022-07-09T09:59:00,mfh,50.58
2022-07-09T10:00:00,mfh,49.77
2022-07-09T10:01:00,mfh,50.21
2022-07-09T10:02:00,mfh,49.89
2022-07-09T10:03:00,mfh,50.41
2022-07-09T10:04:00,mfh,49.97
2022-07-09T10:05:00,mfh,49.90
2022-07-09T10:06:00,mfh,49.82
2022-07-09T10:07:00,mfh,56.87
2022-07-09T10:08:00,mfh,57.75
2022-07-09T10:09:00,mfh,57.80
2022-07-09T10:10:00,mfh,58.33
2022-07-09T10:11:00,mfh,57.87
2022-07-09T10:12:00,mfh,58.08
2022-07-09T10:13:00,mfh,58.55
2022-07-09T10:14:00,mfh,58.42
2022-07-09T10:15:00,mfh,57.83
2022-07-09T10:16:00,mfh,57.73
2022-07-09T10:17:00,mfh,57.23
2022-07-09T10:18:00,mfh,58.35
2022-07-09T10:19:00,mfh,58.51
2022-07-09T10:20:00,mfh,58.15
2022-07-09T10:21:00,mfh,58.26
2022-07-09T10:22:00,mfh,49.95
2022-07-09T10:23:00,mfh,50.05
2022-07-09T10:24:00,mfh,48.65
2022-07-09T10:25:00,mfh,48.77
2022-07-09T10:26:00,mfh,49.13
2022-07-09T10:27:00,mfh,51.26
2022-07-09T10:28:00,mfh,50.38
2022-07-09T10:29:00,mfh,52.05
2022-07-09T10:30:00,mfh,51.40
2022-07-09T10:31:00,mfh,50.45
2022-07-09T10:32:00,mfh,50.21
2022-07-09T10:33:00,mfh,49.25
2022-07-09T10:34:00,mfh,48.55
2022-07-09T10:35:00,mfh,48.99
2022-07-09T10:36:00,mfh,49.01
2022-07-09T10:37:00,mfh,49.96
2022-07-09T10:38:00,mfh,49.04
2022-07-09T10:39:00,mfh,48.90
2022-07-09T10:40:00,mfh,49.06
2022-07-09T10:41:00,mfh,48.39
2022-07-09T10:42:00,mfh,47.82
2022-07-09T10:43:00,mfh,47.87
2022-07-09T10:44:00,mfh,49.09
2022-07-09T10:45:00,mfh,49.13
2022-07-09T10:46:00,mfh,48.88
2022-07-09T10:47:00,mfh,48.84
2022-07-09T10:48:00,mfh,49.24
2022-07-09T10:49:00,mfh,48.51
2022-07-09T10:50:00,mfh,48.42
2022-07-09T10:51:00,mfh,48.15
2022-07-09T10:52:00,mfh,48.42
2022-07-09T10:53:00,mfh,48.55
2022-07-09T10:54:00,mfh,48.16
2022-07-09T10:55:00,mfh,48.59
2022-07-09T10:56:00,mfh,62.97
2022-07-09T10:57:00,mfh,64.49
2022-07-09T10:58:00,mfh,70.41
2022-07-09T10:59:00,mfh,62.88
2022-07-09T11:00:00,mfh,62.36
2022-07-09T11:01:00,mfh,63.45
2022-07-09T11:02:00,mfh,70.33
2022-07-09T11:03:00,mfh,71.65
2022-07-09T11:04:00,mfh,71.45
2022-07-09T11:05:00,mfh,64.29
2022-07-09T11:06:00,mfh,63.74
2022-07-09T11:07:00,mfh,63.60
2022-07-09T11:08:00,mfh,63.82
2022-07-09T11:09:00,mfh,56.85
2022-07-09T11:10:00,mfh,57.18
2022-07-09T11:11:00,mfh,56.90
2022-07-09T11:12:00,mfh,57.13
2022-07-09T11:13:00,mfh,56.76
2022-07-09T11:14:00,mfh,57.01
2022-07-09T11:15:00,mfh,55.86
2022-07-09T11:16:00,mfh,56.34
2022-07-09T11:17:00,mfh,55.73
2022-07-09T11:18:00,mfh,56.02
2022-07-09T11:19:00,mfh,56.01
2022-07-09T11:20:00,mfh,57.09
2022-07-09T11:21:00,mfh,55.02
2022-07-09T11:22:00,mfh,55.38
2022-07-09T11:23:00,mfh,54.65
2022-07-09T11:24:00,mfh,54.59
2022-07-09T11:25:00,mfh,54.79
2022-07-09T11:26:00,mfh,55.27
2022-07-09T11:27:00,mfh,55.79
2022-07-09T11:28:00,mfh,55.91
2022-07-09T11:29:00,mfh,55.91
2022-07-09T11:30:00,mfh,56.00
2022-07-09T11:31:00,mfh,56.13
2022-07-09T11:32:00,mfh,55.30
2022-07-09T11:33:00,mfh,55.30
2022-07-09T11:34:00,mfh,55.29
2022-07-09T11:35:00,mfh,48.09
2022-07-09T11:36:00,mfh,68.82
2022-07-09T11:37:00,mfh,70.32
2022-07-09T11:38:00,mfh,70.05
2022-07-09T11:39:00,mfh,70.11
2022-07-09T11:40:00,mfh,69.92
2022-07-09T11:41:00,mfh,69.18
2022-07-09T11:42:00,mfh,68.98
2022-07-09T11:43:00,mfh,69.54
2022-07-09T11:44:00,mfh,69.73
2022-07-09T11:45:00,mfh,61.87
2022-07-09T11:46:00,mfh,61.90
2022-07-09T11:47:00,mfh,61.67
2022-07-09T11:48:00,mfh,62.02
2022-07-09T11:49:00,mfh,56.02
2022-07-09T11:50:00,mfh,55.44
2022-07-09T11:51:00,mfh,55.50
2022-07-09T11:52:00,mfh,55.69
2022-07-09T11:53:00,mfh,48.62
2022-07-09T11:54:00,mfh,48.24
2022-07-09T11:55:00,mfh,48.01
2022-07-09T11:56:00,mfh,48.23
2022-07-09T11:57:00,mfh,47.96
2022-07-09T11:58:00,mfh,47.43
2022-07-09T11:59:00,mfh,47.70
2022-07-09T12:00:00,mfh,47.41
2022-07-09T12:01:00,mfh,47.78
2022-07-09T12:02:00,mfh,47.68
2022-07-09T12:03:00,mfh,47.66
2022-07-09T12:04:00,mfh,47.64
2022-07-09T12:05:00,mfh,47.24
2022-07-09T12:06:00,mfh,47.79
2022-07-09T12:07:00,mfh,46.57
2022-07-09T12:08:00,mfh,46.13
2022-07-09T12:09:00,mfh,46.70
2022-07-09T12:10:00,mfh,47.02
2022-07-09T12:11:00,mfh,48.28
2022-07-09T12:12:00,mfh,48.02
2022-07-09T12:13:00,mfh,46.80
2022-07-09T12:14:00,mfh,47.40
2022-07-09T12:15:00,mfh,47.32
2022-07-09T12:16:00,mfh,46.63
2022-07-09T12:17:00,mfh,46.99
2022-07-09T12:18:00,mfh,47.30
2022-07-09T12:19:00,mfh,48.31
2022-07-09T12:20:00,mfh,47.58
2022-07-09T12:21:00,mfh,47.49
2022-07-09T12:22:00,mfh,47.47
2022-07-09T12:23:00,mfh,48.00
2022-07-09T12:24:00,mfh,47.74
2022-07-09T12:25:00,mfh,47.52
2022-07-09T12:26:00,mfh,47.65
2022-07-09T12:27:00,mfh,47.26
2022-07-09T12:28:00,mfh,48.01
2022-07-09T12:29:00,mfh,48.33
2022-07-09T12:30:00,mfh,48.69
2022-07-09T12:31:00,mfh,47.96
2022-07-09T12:32:00,mfh,48.52
2022-07-09T12:33:00,mfh,48.46
2022-07-09T12:34:00,mfh,48.52
2022-07-09T12:35:00,mfh,48.06
2022-07-09T12:36:00,mfh,48.16
2022-07-09T12:37:00,mfh,48.76
2022-07-09T12:38:00,mfh,48.37
2022-07-09T12:39:00,mfh,48.36
2022-07-09T12:40:00,mfh,48.31
2022-07-09T12:41:00,mfh,48.32
2022-07-09T12:42:00,mfh,47.01
2022-07-09T12:43:00,mfh,47.12
2022-07-09T12:44:00,mfh,47.19
2022-07-09T12:45:00,mfh,47.95
2022-07-09T12:46:00,mfh,48.52
2022-07-09T12:47:00,mfh,48.05
2022-07-09T12:48:00,mfh,49.04
2022-07-09T12:49:00,mfh,48.07
2022-07-09T12:50:00,mfh,48.35
2022-07-09T12:51:00,mfh,47.52
2022-07-09T12:52:00,mfh,47.62
2022-07-09T12:53:00,mfh,47.52
2022-07-09T12:54:00,mfh,49.07
2022-07-09T12:55:00,mfh,47.88
2022-07-09T12:56:00,mfh,48.15
2022-07-09T12:57:00,mfh,47.73
2022-07-09T12:58:00,mfh,47.69
2022-07-09T12:59:00,mfh,46.66
2022-07-09T13:00:00,mfh,47.29
2022-07-09T13:01:00,mfh,47.31
2022-07-09T13:02:00,mfh,46.74
2022-07-09T13:03:00,mfh,47.28
2022-07-09T13:04:00,mfh,47.58
2022-07-09T13:05:00,mfh,48.16
2022-07-09T13:06:00,mfh,48.48
2022-07-09T13:07:00,mfh,49.23
2022-07-09T13:08:00,mfh,48.18
2022-07-09T13:09:00,mfh,48.19
2022-07-09T13:10:00,mfh,47.68
2022-07-09T13:11:00,mfh,48.10
2022-07-09T13:12:00,mfh,48.00
2022-07-09T13:13:00,mfh,48.21
2022-07-09T13:14:00,mfh,48.30
2022-07-09T13:15:00,mfh,48.42
2022-07-09T13:16:00,mfh,48.92
2022-07-09T13:17:00,mfh,47.58
2022-07-09T13:18:00,mfh,47.73